Location: Arrien
(42.8963°N, 1.0429°E)
Time: 09:08:01
(UTC+00:00)

ISS - Pass Details

Date: 24 February 2026
Orbit: 416 x 426 km, 51.6° (Epoch: 9 March)

Event Time Altitude Azimuth Distance (km) Brightness Sun altitude
Exits shadow 04:04:18 12° 36° (NE) 1,385 -0.6 -29.1°
Drops below altitude 10° 04:04:40 10° 40° (NE) 1,496 -0.3 -29.0°
Sets 04:07:07 0° 58° (ENE) 2,359 1.1 -28.6°
